Torna al catalogo

COSMOS 1275 DEB

AttivoPO
NORAD 14441·DEBRIS·🇷🇺 Russia

Lanciato Jun 4, 1981 da Plesetsk Cosmodrome

Loading…

Prossimi Passaggi (prossime 24 ore)

TLE

AggiornatoSource: Space-Track

Epoca: Sep 14, 2026, 14:32 UTC

1 14441U 81053JH  26257.60605906  .00001809  00000-0  95626-3 0  9994
2 14441  83.1133 204.9830 0046360  58.5558 302.0139 14.12739115285698

Traccia COSMOS 1275 DEB in tempo reale con AllMySat

Download on the App Store